Regional Weather Roundup
Issued by NWS Pendleton, OR

Home | Current Version | Previous Version | Text Only | Print | Product List | Glossary On
Versions: 1 2 3 4 5 6 7 8 9 10 11 12 13 14 15 16 17 18 19 20 21 22 23 24 25 26 27 28 29 30 31 32 33 34 35 36 37 38 39 40 41 42 43 44 45 46 47 48 49 50
000
ASUS46 KPDT 221625
RWRPDT
PENDLETON REGIONAL WEATHER ROUNDUP
NATIONAL WEATHER SERVICE PENDLETON OREGON
900 AM PDT FRI AUG 22 2014

NOTE: FAIR INDICATES FEW OR NO CLOUDS BELOW 12,000 FEET WITH NO
SIGNIFICANT WEATHER AND/OR OBSTRUCTIONS TO VISIBILITY.

# INDICATES UNOFFICIAL STATION AND DATA

WAZ520-221710-
EAST SLOPES OF WASHINGTON CASCADES

CITY            SKY/WX      TMP DP  RH  WIND    PRES   REMARKS
#CLE ELUM HS    N/A         59  46  62  NW2     29.96S
#CLE ELUM 2NW   N/A         60  46  60  SW3     N/A
#CLE ELUM LAKE  N/A         55  46  72  CALM    29.93S
#CLIFFDEL 2NW   N/A         47  42  83  CALM    N/A
#GLENWOOD       N/A         53  47  80  CALM    29.97R
#NELSON         N/A         59  50  72  CALM    29.97S
#NELSON 3SW     N/A         56  48  74  NE1     30.15R
#NILE           N/A         55  42  61  S1      29.25S
#RONALD 2NW     N/A         55  46  72  W1      29.90S
#TEANAWAY 4NE   N/A         56  45  66  CALM    N/A
#TROUT LAKE 1NE N/A         63  50  62  CALM    29.95S
$$

WAZ521-221710-
SIMCOE HIGHLANDS

CITY            SKY/WX      TMP DP  RH  WIND    PRES   REMARKS
#BICKLETON HS   N/A         60  39  46  N9      30.03S
#CENTERVILLE 4W N/A         64  47  54  W7      29.75R
#CENTERVILLE 1SWN/A         61  45  56  CALM    29.92F
#GOLDENDALE     N/A         55  41  59  E1      N/A
#GOLDENDALE 1NE N/A         61  38  42  CALM    N/A
#GOLDENDALE 1S  N/A         60  45  58  CALM    29.97R
#GOLDENDALE 5WNWN/A         N/A N/A N/A E3      29.92R
#GOODNOE HILLS  N/A         67  49  52  SW7     29.91S
#LYLE 6NE       N/A         60  51  72  S3      29.92R
$$

WAZ026-221710-
KITTITAS VALLEY

CITY            SKY/WX      TMP DP  RH  WIND    PRES   REMARKS
ELLENSBURG AP   MOCLDY      66  46  48  NW14    30.00S
#ELLENSBURG CWU N/A         64  47  54  N8      29.90S
#ELLENSBURG 3NE N/A         62  50  65  N3      30.00S
#ELLENSBURG     N/A         66  50  56  W3      N/A
#ELLENSBURG 1E  N/A         64  47  54  CALM    N/A
#KITTITAS 3S    N/A         62  51  67  CALM    29.93S
#THORP 6N       N/A         59  46  62  NW13    29.95F
$$

WAZ027-221710-
YAKIMA VALLEY

CITY            SKY/WX      TMP DP  RH  WIND    PRES   REMARKS
SUNNYSIDE AP    PTCLDY      59  48  67  W5      29.98R
YAKIMA AIRPORT  MOCLDY      67  44  43  NW3     29.99R
YAKIMA-VAGABOND SUNNY       65  44  46  N5      30.00R
#COWICHE 1N     N/A         61  45  56  N3      30.15R
#DONALD 2NE     N/A         75  46  36  S1      30.30S
#GRANDVIEW      N/A         62  48  60  NW1     29.96R
#MABTON         N/A         65  50  58  W2      29.97R
#MOXEE 2E       N/A         67  32  27  N5      29.92F
#NACHES 2SW     N/A         63  46  54  NW7     29.99S
#OUTLOOK DOT    N/A         N/A N/A N/A W2      N/A
#SELAH 8E       N/A         63  45  52  NE7     N/A
#TERRACE HTS    N/A         65  47  52  CALM    29.90R
#TOPPENISH      N/A         64  46  52  NW2     29.87R
#WAPATO 4NE     N/A         75  46  36  S1      30.30S
#W YAKIMA       N/A         64  46  52  CALM    29.93R
#WHITE SWAN 5E  N/A         67  46  47  E1      29.95S
#WILEY CITY 3W  N/A         66  43  43  CALM    29.99R
$$

WAZ028-221710-
LOWER COLUMBIA BASIN...WASHINGTON

CITY            SKY/WX      TMP DP  RH  WIND    PRES   REMARKS
HANFORD         MOCLDY      70  49  47  N12     29.95R
PASCO           PTCLDY      70  53  55  N13     29.96R
PROSSER AWOS    N/A         64  52  65  SW6     30.00R
RICHLAND AWOS   PTCLDY      72  50  46  N12     29.95R
#BASIN CITY 5SW N/A         68  56  65  N5      29.96R
#BENTON CITY    N/A         70  53  55  CALM    29.84R
#CONNELL 5N     N/A         67  52  59  N7      29.90R
#CONNELL 5NW    N/A         66  52  61  N9      29.87R
#ELTOPIA        N/A         66  56  70  N2      29.89R
#ELTOPIA 6NW    N/A         67  55  65  N6      28.92R
#KENNEWICK 3S   N/A         68  53  59  CALM    29.93R
#PATERSON       N/A         65  53  65  CALM    29.93R
#PROSSER        N/A         66  47  50  SW7     29.93S
#SAGEMOOR 2W    N/A         66  56  70  N2      29.79R
#TOUCHET 2S     N/A         69  53  57  N3      29.91S
#WEST PASCO     N/A         71  54  55  NW6     29.93R
$$

WAZ029-221710-
FOOTHILLS OF THE BLUES...WASHINGTON

CITY            SKY/WX      TMP DP  RH  WIND    PRES   REMARKS
WALLA WALLA AP  SUNNY       67  50  54  S10     29.98R
#COLLEGE PLACE  N/A         71  48  44  S1      29.96R
#DAYTON SCHOOL  N/A         64  43  46  N7      29.95R
#LOWDEN 2SE     N/A         68  53  59  NW2     29.92R
#PLEASANT VIEW 1N/A         64  48  56  S14     29.93R
#PRESCOTT       N/A         66  53  63  SW5     29.91R
#SUDBURY        N/A         68  N/A N/A W6      N/A
#WHITMAN COLLEGEN/A         65  51  60  S6      29.97R
#WAITSBURG 8N   N/A         64  40  41  S16     29.91R
#WALLA WALLA 5E N/A         98  49  19  SE9     N/A    HX 95
#WALLA WALLA U  N/A         68  52  57  CALM    29.92R
$$

WAZ030-221710-
BLUE MOUNTAINS...WASHINGTON

CITY            SKY/WX      TMP DP  RH  WIND    PRES   REMARKS
$$

ORZ009-041-WAZ024-221710-
COLUMBIA RIVER GORGE

CITY            SKY/WX      TMP DP  RH  WIND    PRES   REMARKS
HOOD RIVER AP   SUNNY       63  52  67  SE3     29.99S
THE DALLES AP   SUNNY       67  50  54  N15     29.97R
#ARLINGTON AIRPON/A         67  47  49  W6      N/A
#ARLINGTON HS   N/A         71  48  44  NW3     29.84S
#MARYHILL 2W    N/A         67  51  56  SE3     N/A
#MOSIER 1S      N/A         65  43  45  W3      30.03S
#MURDOCK        N/A         68  55  63  W9      29.97R
#RUFUS DOT      N/A         69  50  51  N7      N/A

$$

ORZ510-221710-
NORTH CENTRAL OREGON

CITY            SKY/WX      TMP DP  RH  WIND    PRES   REMARKS
#CHENOWITH 1W   N/A         58  48  69  W18     N/A
#COW CYN RST AREN/A         60  45  58  SW2     N/A
#DUFUR 9E       N/A         60  48  64  NE6     29.98R
#GRASS VALLEY   N/A         61  47  60  NW7     N/A
#GRASS VALLEY 1SN/A         62  47  58  NW2     29.96S
#KENT DOT       N/A         62  45  54  NW7     N/A
#MAUPIN SCHOOL  N/A         63  47  56  CALM    28.87S
#MORO SCHOOL    N/A         63  53  70  W13     30.00R
#SHANIKO 5WSW   N/A         60  42  51  CALM    N/A
#SHANIKO 4NW    N/A         57  43  59  W1      30.03S
#TYGH VALLEY 2NEN/A         61  45  56  CALM    29.95S
#WAPANITIA AIRPON/A         64  45  50  CALM    29.94S
#WASCO DOT      N/A         67  51  56  SW3     N/A
#WASCO AIRPORT  N/A         64  46  52  W9      N/A
#WASCO 5NE      N/A         66  48  52  CALM    29.93S
$$

ORZ511-221710-
CENTRAL OREGON

CITY            SKY/WX      TMP DP  RH  WIND    PRES   REMARKS
BEND AIRPORT    SUNNY       59  39  47  CALM    30.05S
MADRAS AIRPORT  SUNNY       61  43  51  S3      30.04S
REDMOND AIRPORT SUNNY       60  39  46  CALM    30.03S
#BEND 6E        N/A         59  40  49  CALM    29.88S
#BEND-AWBREY    N/A         59  43  55  E3      29.92S
#BEND-KIM LN    N/A         58  45  62  CALM    30.02R
#CROOKED RVR RANN/A         62  44  52  N10     29.92S
#CULVER         N/A         60  45  58  E3      29.98F
#LAKE BILLY CHINN/A         58  21  24  CALM    30.07F
#POWELL BUTTE 3EN/A         54  44  69  CALM    N/A
#POWELL BUTTE   N/A         68  49  51  N2      29.68R
#PRINEVILLE 3N  N/A         58  47  67  CALM    29.90F
#WARM SPRINGS   N/A         65  46  50  SW1     29.97F


ORZ509-221710-
EAST SLOPES OF OREGON CASCADES

CITY            SKY/WX      TMP DP  RH  WIND    PRES   REMARKS
#BLACK BUTTE RNCN/A         53  47  80  CALM    29.94S
#CAMP SHERMAN   N/A         54  44  69  CALM    29.97F
#LA PINE DOT    N/A         57  36  45  CALM    N/A
#LA PINE 4NW    N/A         54  42  64  CALM    29.98F
#LAVA BUTTE DOT N/A         53  41  64  CALM    N/A
#SISTERS AIRPOR N/A         62  50  65  CALM    30.01F
#SISTERS ODOT   N/A         61  N/A N/A S6      N/A
#SISTERS 1NW    N/A         60  44  55  N5      N/A
#SISTERS 3N     N/A         60  45  58  SW2     N/A
#SUNRIVER       N/A         53  43  69  SW1     29.83F
#SUTTLE LK DOT  N/A         55  45  69  N2      N/A
#TUMALO 3W      N/A         59  42  53  N7      29.81F
#WANOGA BUTTE D N/A         51  37  59  E3      N/A

$$

ORZ044-221710-
LOWER COLUMBIA BASIN...OREGON

CITY            SKY/WX      TMP DP  RH  WIND    PRES   REMARKS
HERMISTON       SUNNY       66  47  50  CALM    29.96S
#BOARDMAN SCHOOLN/A         65  50  58  CALM    29.96S
#BOARDMAN 3W    N/A         72  55  55  S1      29.68R
#BOARDMAN 8SW   N/A         68  49  51  SW1     29.94R
#ECHO 8SW       N/A         69  46  44  NW1     29.94R
#IONE SCHOOL    N/A         67  47  49  SW2     29.97R
#IRRIGON 4NW    N/A         66  53  63  E1      N/A
#UMATILLA SCHOOLN/A         72  56  57  CALM    29.97S
$$

ORZ507-221710-
NORTHERN FOOTHILLS OF THE BLUES

CITY            SKY/WX      TMP DP  RH  WIND    PRES   REMARKS
PENDLETON AIRPT SUNNY       66  46  48  NW8     29.97S
#ADAMS 3WNW     N/A         65  49  56  W3      29.92S
#ATHENA         N/A         65  49  56  CALM    29.93S
#HELIX SCHOOL   N/A         63  50  62  W2      29.91S
#HELIX 3N       N/A         63  49  60  W8      29.95S
#HELIX 6SW      N/A         63  49  60  W7      29.97S
#HOLDMAN 5SE    N/A         65  48  54  W3      29.98R
#HOLDMAN 6E     N/A         64  48  56  E7      29.74S
#M-F GROVE ELEM N/A         67  46  47  SW1     29.96R
#M-FREEWATER 5SEN/A         65  50  58  W1      29.97R
#PDT AQUATIC CTRN/A         67  47  49  SW1     29.96S
#PENDLETON DNTN N/A         67  47  49  CALM    29.92S
#PDT SUNRIDGE   N/A         68  50  53  N1      29.98S
#PENDLETON 7NW  N/A         71  52  51  W2      N/A
#PILOT ROCK     N/A         67  46  47  CALM    30.00S
#TUTUILLA       N/A         68  50  53  W2      29.88S
#UMAPINE 2E     N/A         68  54  61  W1      29.93S
#WESTON SCHOOL  N/A         62  46  56  W6      29.94S

$$

ORZ508-221710-
SOUTHERN FOOTHILLS OF THE BLUES

CITY            SKY/WX      TMP DP  RH  WIND    PRES   REMARKS
LEXINGTON       SUNNY       66  46  48  W6      30.00S
#AJAX           N/A         62  42  48  W2      29.94R
#CONDON SCHOOL  N/A         61  47  60  NW2     29.98R
#CONDON 5W      N/A         58  43  57  NW8     29.99R
#FOSSIL SCHOOL  N/A         61  47  60  W5      29.99R
#HEPPNER 4NE    N/A         61  45  56  W5      29.91S
#LEXINGTON 2SE  N/A         67  48  50  NW1     29.95R
#MIKKALO        N/A         65  45  48  NW7     29.99R
#OLEX 4N        N/A         65  49  56  W3      29.96S
#RUGGS 5NE      N/A         62  44  52  SW6     30.17S
#RUGGS 2SW      N/A         62  45  54  W5      29.96S

$$

ORZ502-503-221710-
BLUE MOUNTAINS

CITY            SKY/WX      TMP DP  RH  WIND    PRES   REMARKS
MEACHAM         SUNNY       58  45  62  VRB5    30.02R
#BATTLE MTN DOT N/A         58  52  80  CALM    N/A
#HEPPNER 15SE   N/A         55  45  69  W5      29.94R
#LADD CYN SMT   N/A         59  40  49  NW9     N/A
#LADD CREEK ODOTN/A         59  45  60  NE6     N/A
#LONG CREEK HS  N/A         57  46  67  NE5     N/A
#N POWDER DOT   N/A         60  49  67  NE14    N/A
#PIKES PEAK     N/A         54  46  74  SW14    27.99S
#TOLLGATE       N/A         48  45  89  SW2     29.97R
#TROY SCHOOL    N/A         62  47  58  CALM    29.75F
#UKIAH          N/A         53  43  69  CALM    29.99F
#WESTON 4E      N/A         58  46  64  SW5     29.85R
$$

ORZ505-221710-
JOHN DAY BASIN

CITY            SKY/WX      TMP DP  RH  WIND    PRES   REMARKS
JOHN DAY        SUNNY       61  40  46  CALM    30.02S
#JOHN DAY KJDY  N/A         58  37  45  NE2     30.33R
#MONUMENT HS    N/A         62  40  44  CALM    30.02R
#MT. VERNON 5SE N/A         59  44  57  W3      29.98S
#WINLOCK        N/A         63  48  58  CALM    30.09S
$$

ORZ506-221710-
OCHOCO AND JOHN DAY HIGHLANDS

CITY            SKY/WX      TMP DP  RH  WIND    PRES   REMARKS
#BUCK CREEK DOT N/A         58  48  69  W5      N/A
#HORSE RIDGE DO N/A         55  37  51  SE2     N/A
#KEYES SMT DOT  N/A         56  42  59  NW7     N/A
#PAULINA SCHOOL N/A         62  45  54  CALM    30.03S
#PINE MTN OBS   N/A         47  39  74  NW1     N/A
#PRAIRIE CITY   N/A         54  41  61  CALM    30.01F
#SENECA 9NW     N/A         55  40  57  CALM    29.86F
$$

ORZ049-221710-
GRANDE RONDE VALLEY

CITY            SKY/WX      TMP DP  RH  WIND    PRES   REMARKS
LA GRANDE       MOSUNNY     64  39  40  NW17    29.98S
#COVE           N/A         61  45  56  CALM    29.91S
#COVE SCHOOL    N/A         60  41  49  SW1     29.98R
#COVE 6NW       N/A         59  43  55  NW2     29.95S
#ELGIN 3N       N/A         62  42  48  CALM    29.72S
#ELGIN 1E       N/A         56  44  64  CALM    N/A
#IMBLER SCHOOL  N/A         63  44  50  CALM    29.95S
#ISLAND CITY 4N N/A         67  46  47  CALM    29.84F
#LADD CYN DOT   N/A         62  45  54  N12     N/A
#LA GRANDE ELEM N/A         61  45  56  W14     29.98S
#UNION 1S       N/A         63  47  56  NW7     29.80F
$$

ORZ050-221710-
WALLOWA COUNTY

CITY            SKY/WX      TMP DP  RH  WIND    PRES   REMARKS
JOSEPH AIRPORT  CLOUDY      59  37  44  CALM    30.02S
#ENTERPRISE AP  N/A         56  37  49  CALM    29.94F
#ENTERPRISE HS  N/A         54  41  61  CALM    30.02S
#IMNAHA SCHOOL  N/A         64  34  33  CALM    29.91F
#IMNAHA 10S     N/A         61  38  42  S1      29.96F
#JOSEPH 3N      N/A         56  41  57  N1      30.02F
#JOSEPH 3W      N/A         55  40  57  CALM    29.86S
#MT HOWARD 8000 N/A         43  32  65  VRB5    30.14S
#PROMISE 1S     N/A         56  43  62  CALM    30.01R
#SHEEP RDG 7000 N/A         47  35  63  CALM    29.85S
#WALLOWA SCHOOL N/A         56  44  64  CALM    30.81F



$$



USA.gov is the U.S. government's official web portal to all federal, state and local government web resources and services.